Weather History for KCKC - June, 2014

Change the Weather History Date:

Saturday, June 7, 2014

  Actual Average Record
Temperature  
Mean Temperature 51 °F -  
Max Temperature 60 °F 63 °F 77 °F (2004)
Min Temperature 42 °F 43 °F 30 °F (2013)
Degree Days  
Heating Degree Days 14    
Growing Degree Days 1 (Base 50)    
Moisture  
Dew Point 42 °F    
Average Humidity 69    
Maximum Humidity 93    
Minimum Humidity 45    
Precipitation  
Precipitation 0.44 in - - ()
Sea Level Pressure  
Sea Level Pressure 30.03 in    
Wind  
Wind Speed 5 mph (NNW)    
Max Wind Speed 12 mph    
Max Gust Speed 20 mph    
Visibility 10 miles    
Events Rain    
Averages and records for this station are not official NWS values.
T = Trace of Precipitation, MM = Missing Value Source: NWS Daily Summary

Daily Weather History Graph

Daily Weather History Graph

Search for Another Location

Airport or City:

Trip Planner

Search our weather history database for the weather conditions in past years. The results will help you decide how hot, cold, wet, or windy it might be!

Date:

Astronomy

Jun. 07, 2014 Rise Set
Actual Time 5:03 AM CDT 8:57 PM CDT
Civil Twilight 4:23 AM CDT 9:37 PM CDT
Nautical Twilight 3:28 AM CDT 10:33 PM CDT
Astronomical Twilight 2:03 AM CDT 11:59 PM CDT
Moon 2:52 PM CDT (6/7) 1:51 AM CDT (6/7)
Length of Visible Light 17h 14m
Length of Day
15h 53m
Waxing Gibbous, 68% of the Moon is Illuminated
Jun 7
Waxing Gibbous
Jun 12
Full
Jun 19
Last Quarter
Jun 27
New
Jul 5
First Quarter

Hourly Weather History & Observations

Time (CDT) Temp. Windchill Dew Point Humidity Pressure Visibility Wind Dir Wind Speed Gust Speed Precip Events Conditions
12:13 AM 59.0 °F - 37.4 °F 45% 30.00 in 10.0 mi NW 4.6 mph - N/A   Clear
12:33 AM 57.2 °F - 39.2 °F 51% 30.00 in 10.0 mi NW 3.5 mph - N/A   Clear
12:53 AM 57.2 °F - 39.2 °F 51% 29.98 in 10.0 mi NNW 3.5 mph - N/A   Clear
1:14 AM 53.6 °F - 39.2 °F 58% 29.99 in 10.0 mi NNW 4.6 mph - N/A   Clear
1:34 AM 53.6 °F - 39.2 °F 58% 30.00 in 10.0 mi Calm Calm - N/A   Clear
1:53 AM 53.6 °F - 41.0 °F 62% 30.00 in 10.0 mi NNW 3.5 mph - N/A   Mostly Cloudy
2:13 AM 53.6 °F - 41.0 °F 62% 30.00 in 10.0 mi NNW 5.8 mph - N/A   Overcast
2:34 AM 55.4 °F - 41.0 °F 58% 30.00 in 10.0 mi NNW 6.9 mph - N/A   Overcast
2:53 AM 55.4 °F - 41.0 °F 58% 30.00 in 10.0 mi NNW 6.9 mph - N/A   Overcast
3:14 AM 55.4 °F - 41.0 °F 58% 29.99 in 10.0 mi North 9.2 mph - N/A   Overcast
3:34 AM 55.4 °F - 39.2 °F 54% 30.00 in 10.0 mi NNW 8.1 mph - N/A   Mostly Cloudy
3:53 AM 55.4 °F - 39.2 °F 54% 30.00 in 10.0 mi NNW 6.9 mph - N/A   Mostly Cloudy
4:13 AM 55.4 °F - 39.2 °F 54% 30.00 in 10.0 mi NNW 9.2 mph - N/A   Overcast
4:33 AM 55.4 °F - 39.2 °F 54% 30.02 in 10.0 mi NNW 9.2 mph - N/A   Overcast
4:53 AM 55.4 °F - 39.2 °F 54% 30.02 in 10.0 mi NNW 10.4 mph 16.1 mph N/A   Overcast
5:14 AM 55.4 °F - 39.2 °F 54% 30.02 in 10.0 mi NNW 11.5 mph 16.1 mph N/A Rain Light Rain
5:34 AM 53.6 °F - 39.2 °F 58% 30.03 in 10.0 mi NNW 9.2 mph 16.1 mph N/A   Drizzle
5:53 AM 53.6 °F - 39.2 °F 58% 30.02 in 10.0 mi NNW 11.5 mph 18.4 mph N/A   Light Drizzle
6:13 AM 53.6 °F - 39.2 °F 58% 30.02 in 10.0 mi NNW 9.2 mph 19.6 mph N/A   Overcast
6:34 AM 51.8 °F - 41.0 °F 67% 30.03 in 10.0 mi NNW 11.5 mph - N/A Rain Rain
7:14 AM 46.4 °F 41.5 °F 42.8 °F 87% 30.08 in 5.0 mi NW 10.4 mph - 0.11 in Rain Heavy Rain
8:13 AM 46.4 °F 42.4 °F 42.8 °F 87% 30.08 in 10.0 mi North 8.1 mph - 0.04 in Rain Rain
8:34 AM 46.4 °F 42.4 °F 42.8 °F 87% 30.08 in 10.0 mi North 8.1 mph - 0.07 in Rain Rain
8:54 AM 46.4 °F 41.9 °F 44.6 °F 93% 30.06 in 10.0 mi North 9.2 mph - 0.10 in Rain Rain
9:13 AM 46.4 °F 42.4 °F 44.6 °F 93% 30.06 in 10.0 mi North 8.1 mph - 0.01 in Rain Light Rain
9:33 AM 46.4 °F 43.5 °F 44.6 °F 93% 30.07 in 10.0 mi NNW 5.8 mph - 0.05 in Rain Rain
9:54 AM 46.4 °F 42.4 °F 44.6 °F 93% 30.07 in 7.0 mi NNW 8.1 mph - 0.13 in Rain Rain
10:13 AM 46.4 °F 43.5 °F 42.8 °F 87% 30.07 in 10.0 mi NNW 5.8 mph - 0.05 in Rain Rain
10:33 AM 46.4 °F 42.9 °F 42.8 °F 87% 30.06 in 10.0 mi North 6.9 mph - 0.09 in Rain Light Rain
10:54 AM 48.2 °F - 44.6 °F 87% 30.05 in 10.0 mi North 8.1 mph - 0.10 in Rain Light Rain
11:13 AM 48.2 °F - 44.6 °F 87% 30.04 in 10.0 mi North 8.1 mph - N/A   Light Drizzle
11:34 AM 48.2 °F - 42.8 °F 82% 30.04 in 10.0 mi North 9.2 mph - N/A Rain Light Rain
11:53 AM 50.0 °F - 44.6 °F 82% 30.04 in 10.0 mi NNE 5.8 mph - N/A   Light Drizzle
12:14 PM 51.8 °F - 44.6 °F 76% 30.04 in 10.0 mi NNE 4.6 mph - N/A   Overcast
12:33 PM 51.8 °F - 44.6 °F 76% 30.05 in 10.0 mi Calm Calm - N/A   Overcast
12:53 PM 51.8 °F - 44.6 °F 76% 30.06 in 10.0 mi Calm Calm - N/A   Overcast
1:13 PM 51.8 °F - 42.8 °F 71% 30.05 in 10.0 mi NNW 3.5 mph - N/A   Overcast
1:33 PM 51.8 °F - 44.6 °F 76% 30.05 in 10.0 mi Calm Calm - N/A   Mostly Cloudy
1:54 PM 53.6 °F - 44.6 °F 72% 30.04 in 10.0 mi Calm Calm - N/A   Scattered Clouds
2:13 PM 55.4 °F - 44.6 °F 67% 30.03 in 10.0 mi Calm Calm - N/A   Clear
2:34 PM 53.6 °F - 42.8 °F 67% 30.03 in 10.0 mi North 4.6 mph - N/A   Clear
2:53 PM 55.4 °F - 42.8 °F 63% 30.03 in 10.0 mi WNW 4.6 mph - N/A   Clear
3:13 PM 55.4 °F - 44.6 °F 67% 30.02 in 10.0 mi NW 3.5 mph - N/A   Clear
3:33 PM 57.2 °F - 42.8 °F 59% 30.02 in 10.0 mi NW 3.5 mph - N/A   Scattered Clouds
3:54 PM 57.2 °F - 42.8 °F 59% 30.01 in 10.0 mi West 3.5 mph - N/A   Clear
4:13 PM 59.0 °F - 42.8 °F 55% 30.01 in 10.0 mi NNW 6.9 mph - N/A   Clear
4:33 PM 60.8 °F - 42.8 °F 52% 30.01 in 10.0 mi NNW 5.8 mph - N/A   Clear
4:54 PM 59.0 °F - 41.0 °F 51% 30.01 in 10.0 mi West 4.6 mph - N/A   Scattered Clouds
5:13 PM 59.0 °F - 39.2 °F 48% 30.01 in 10.0 mi WNW 5.8 mph - N/A   Clear
5:33 PM 59.0 °F - 39.2 °F 48% 30.01 in 10.0 mi NNW 5.8 mph - N/A   Clear
5:54 PM 59.0 °F - 41.0 °F 51% 30.01 in 10.0 mi WNW 3.5 mph - N/A   Clear
6:13 PM 60.8 °F - 39.2 °F 45% 30.01 in 10.0 mi WNW 4.6 mph - N/A   Scattered Clouds
6:33 PM 60.8 °F - 39.2 °F 45% 30.01 in 10.0 mi WNW 5.8 mph - N/A   Scattered Clouds
6:53 PM 60.8 °F - 42.8 °F 52% 30.01 in 10.0 mi West 3.5 mph - N/A   Clear
7:14 PM 57.2 °F - 42.8 °F 59% 30.01 in 10.0 mi Calm Calm - N/A   Clear
7:33 PM 59.0 °F - 41.0 °F 51% 30.01 in 10.0 mi Calm Calm - N/A   Clear
7:54 PM 55.4 °F - 46.4 °F 72% 30.01 in 10.0 mi Calm Calm - N/A   Clear
8:14 PM 51.8 °F - 46.4 °F 82% 30.02 in 10.0 mi South 3.5 mph - N/A   Clear
8:33 PM 50.0 °F - 44.6 °F 82% 30.03 in 10.0 mi Calm Calm - N/A   Clear
8:54 PM 48.2 °F - 44.6 °F 87% 30.03 in 10.0 mi SSW 3.5 mph - N/A   Clear
9:13 PM 46.4 °F 44.3 °F 42.8 °F 87% 30.04 in 10.0 mi SSW 4.6 mph - N/A   Clear
9:33 PM 46.4 °F 45.2 °F 42.8 °F 87% 30.05 in 10.0 mi SSW 3.5 mph - N/A   Clear
9:54 PM 44.6 °F - 42.8 °F 93% 30.05 in 10.0 mi Calm Calm - N/A   Clear
10:13 PM 44.6 °F - 41.0 °F 87% 30.05 in 10.0 mi Calm Calm - N/A   Clear
10:34 PM 44.6 °F - 41.0 °F 87% 30.05 in 10.0 mi Calm Calm - N/A   Clear
10:53 PM 44.6 °F - 41.0 °F 87% 30.05 in 10.0 mi Calm Calm - N/A   Clear
11:13 PM 42.8 °F 41.1 °F 39.2 °F 87% 30.05 in 10.0 mi WSW 3.5 mph - N/A   Clear
11:33 PM 42.8 °F - 39.2 °F 87% 30.05 in 10.0 mi Calm Calm - N/A   Clear
11:53 PM 42.8 °F - 39.2 °F 87% 30.05 in 10.0 mi Calm Calm - N/A   Clear